Year,Month,Day,Hour,Minute,Value (Times are PST for temperature in C)
2015,07,05,00,00,13.00
2015,07,05,00,01,13.00
2015,07,05,00,02,13.00
2015,07,05,00,03,13.00
2015,07,05,00,04,13.00
2015,07,05,00,05,13.00
2015,07,05,00,06,13.00
2015,07,05,00,07,13.10
2015,07,05,00,08,13.00
2015,07,05,00,09,13.10
2015,07,05,00,10,13.10
2015,07,05,00,11,13.00
2015,07,05,00,12,13.00
2015,07,05,00,13,13.00
2015,07,05,00,14,13.00
2015,07,05,00,15,13.00
2015,07,05,00,16,13.00
2015,07,05,00,17,13.00
2015,07,05,00,18,13.00
2015,07,05,00,19,13.00
2015,07,05,00,20,13.00
2015,07,05,00,21,13.00
2015,07,05,00,22,13.00
2015,07,05,00,23,13.00
2015,07,05,00,24,13.00
2015,07,05,00,25,13.00
2015,07,05,00,26,13.00
2015,07,05,00,27,13.00
2015,07,05,00,28,13.00
2015,07,05,00,29,12.90
2015,07,05,00,30,12.90
2015,07,05,00,31,12.90
2015,07,05,00,32,12.90
2015,07,05,00,33,12.90
2015,07,05,00,34,12.90
2015,07,05,00,35,12.90
2015,07,05,00,36,12.90
2015,07,05,00,37,12.90
2015,07,05,00,38,12.90
2015,07,05,00,39,12.90
2015,07,05,00,40,12.90
2015,07,05,00,41,12.90
2015,07,05,00,42,12.90
2015,07,05,00,43,12.90
2015,07,05,00,44,12.90
2015,07,05,00,45,12.90
2015,07,05,00,46,12.90
2015,07,05,00,47,12.90
2015,07,05,00,48,12.90
2015,07,05,00,49,12.90
2015,07,05,00,50,12.90
2015,07,05,00,51,12.90
2015,07,05,00,52,12.90
2015,07,05,00,53,12.90
2015,07,05,00,54,12.90
2015,07,05,00,55,12.90
2015,07,05,00,56,12.90
2015,07,05,00,57,12.90
2015,07,05,00,58,12.90
2015,07,05,00,59,12.90
2015,07,05,01,00,13.00
2015,07,05,01,01,13.00
2015,07,05,01,02,13.00
2015,07,05,01,03,13.10
2015,07,05,01,04,13.00
2015,07,05,01,05,13.00
2015,07,05,01,06,13.00
2015,07,05,01,07,13.00
2015,07,05,01,08,13.00
2015,07,05,01,09,13.00
2015,07,05,01,10,13.00
2015,07,05,01,11,12.90
2015,07,05,01,12,12.90
2015,07,05,01,13,12.90
2015,07,05,01,14,12.90
2015,07,05,01,15,12.90
2015,07,05,01,16,12.90
2015,07,05,01,17,12.90
2015,07,05,01,18,12.90
2015,07,05,01,19,12.90
2015,07,05,01,20,12.80
2015,07,05,01,21,12.80
2015,07,05,01,22,12.80
2015,07,05,01,23,12.80
2015,07,05,01,24,12.80
2015,07,05,01,25,12.80
2015,07,05,01,26,12.80
2015,07,05,01,27,12.80
2015,07,05,01,28,12.80
2015,07,05,01,29,12.80
2015,07,05,01,30,12.80
2015,07,05,01,31,12.80
2015,07,05,01,32,12.80
2015,07,05,01,33,12.80
2015,07,05,01,34,12.80
2015,07,05,01,35,12.80
2015,07,05,01,36,12.80
2015,07,05,01,37,12.80
2015,07,05,01,38,12.80
2015,07,05,01,39,12.80
2015,07,05,01,40,12.80
2015,07,05,01,41,12.80
2015,07,05,01,42,12.80
2015,07,05,01,43,12.80
2015,07,05,01,44,12.70
2015,07,05,01,45,12.70
2015,07,05,01,46,12.80
2015,07,05,01,47,12.80
2015,07,05,01,48,12.80
2015,07,05,01,49,12.80
2015,07,05,01,50,12.80
2015,07,05,01,51,12.80
2015,07,05,01,52,12.80
2015,07,05,01,53,12.80
2015,07,05,01,54,12.70
2015,07,05,01,55,12.70
2015,07,05,01,56,12.70
2015,07,05,01,57,12.70
2015,07,05,01,58,12.70
2015,07,05,01,59,12.70
2015,07,05,02,00,12.70
2015,07,05,02,01,12.80
2015,07,05,02,02,12.80
2015,07,05,02,03,12.80
2015,07,05,02,04,12.80
2015,07,05,02,05,12.70
2015,07,05,02,06,12.70
2015,07,05,02,07,12.70
2015,07,05,02,08,12.70
2015,07,05,02,09,12.70
2015,07,05,02,10,12.70
2015,07,05,02,11,12.80
2015,07,05,02,12,12.80
2015,07,05,02,13,12.80
2015,07,05,02,14,12.80
2015,07,05,02,15,12.80
2015,07,05,02,16,12.80
2015,07,05,02,17,12.80
2015,07,05,02,18,12.80
2015,07,05,02,19,12.80
2015,07,05,02,20,12.80
2015,07,05,02,21,12.80
2015,07,05,02,22,12.90
2015,07,05,02,23,12.90
2015,07,05,02,24,12.90
2015,07,05,02,25,12.90
2015,07,05,02,26,13.00
2015,07,05,02,27,13.00
2015,07,05,02,28,13.10
2015,07,05,02,29,13.10
2015,07,05,02,30,13.20
2015,07,05,02,31,13.20
2015,07,05,02,32,13.30
2015,07,05,02,33,13.20
2015,07,05,02,34,13.20
2015,07,05,02,35,13.20
2015,07,05,02,36,13.20
2015,07,05,02,37,13.20
2015,07,05,02,38,13.20
2015,07,05,02,39,13.20
2015,07,05,02,40,13.30
2015,07,05,02,41,13.30
2015,07,05,02,42,13.40
2015,07,05,02,43,13.40
2015,07,05,02,44,13.40
2015,07,05,02,45,13.40
2015,07,05,02,46,13.40
2015,07,05,02,47,13.40
2015,07,05,02,48,13.40
2015,07,05,02,49,13.40
2015,07,05,02,50,13.40
2015,07,05,02,51,13.50
2015,07,05,02,52,13.50
2015,07,05,02,53,13.50
2015,07,05,02,54,13.50
2015,07,05,02,55,13.50
2015,07,05,02,56,13.50
2015,07,05,02,57,13.50
2015,07,05,02,58,13.50
2015,07,05,02,59,13.60
2015,07,05,03,00,13.60
2015,07,05,03,01,13.50
2015,07,05,03,02,13.50
2015,07,05,03,03,13.50
2015,07,05,03,04,13.50
2015,07,05,03,05,13.50
2015,07,05,03,06,13.50
2015,07,05,03,07,13.50
2015,07,05,03,08,13.50
2015,07,05,03,09,13.50
2015,07,05,03,10,13.60
2015,07,05,03,11,13.60
2015,07,05,03,12,13.60
2015,07,05,03,13,13.60
2015,07,05,03,14,13.70
2015,07,05,03,15,13.80
2015,07,05,03,16,13.80
2015,07,05,03,17,13.80
2015,07,05,03,18,13.80
2015,07,05,03,19,13.80
2015,07,05,03,20,13.80
2015,07,05,03,21,13.80
2015,07,05,03,22,13.90
2015,07,05,03,23,13.90
2015,07,05,03,24,13.90
2015,07,05,03,25,13.90
2015,07,05,03,26,13.80
2015,07,05,03,27,13.80
2015,07,05,03,28,13.80
2015,07,05,03,29,13.80
2015,07,05,03,30,13.70
2015,07,05,03,31,13.70
2015,07,05,03,32,13.70
2015,07,05,03,33,13.70
2015,07,05,03,34,13.70
2015,07,05,03,35,13.60
2015,07,05,03,36,13.50
2015,07,05,03,37,13.50
2015,07,05,03,38,13.40
2015,07,05,03,39,13.40
2015,07,05,03,40,13.30
2015,07,05,03,41,13.20
2015,07,05,03,42,13.20
2015,07,05,03,43,13.20
2015,07,05,03,44,13.20
2015,07,05,03,45,13.20
2015,07,05,03,46,13.20
2015,07,05,03,47,13.10
2015,07,05,03,48,13.10
2015,07,05,03,49,13.10
2015,07,05,03,50,13.10
2015,07,05,03,51,13.10
2015,07,05,03,52,13.10
2015,07,05,03,53,13.00
2015,07,05,03,54,13.00
2015,07,05,03,55,12.90
2015,07,05,03,56,12.90
2015,07,05,03,57,12.90
2015,07,05,03,58,12.90
2015,07,05,03,59,12.80
2015,07,05,04,00,12.80
2015,07,05,04,01,12.80
2015,07,05,04,02,12.80
2015,07,05,04,03,12.70
2015,07,05,04,04,12.70
2015,07,05,04,05,12.70
2015,07,05,04,06,12.60
2015,07,05,04,07,12.60
2015,07,05,04,08,12.60
2015,07,05,04,09,12.60
2015,07,05,04,10,12.60
2015,07,05,04,11,12.60
2015,07,05,04,12,12.50
2015,07,05,04,13,12.50
2015,07,05,04,14,12.50
2015,07,05,04,15,12.50
2015,07,05,04,16,12.40
2015,07,05,04,17,12.40
2015,07,05,04,18,12.40
2015,07,05,04,19,12.40
2015,07,05,04,20,12.40
2015,07,05,04,21,12.40
2015,07,05,04,22,12.40
2015,07,05,04,23,12.40
2015,07,05,04,24,12.40
2015,07,05,04,25,12.40
2015,07,05,04,26,12.40
2015,07,05,04,27,12.50
2015,07,05,04,28,12.50
2015,07,05,04,29,12.50
2015,07,05,04,30,12.50
2015,07,05,04,31,12.50
2015,07,05,04,32,12.50
2015,07,05,04,33,12.50
2015,07,05,04,34,12.50
2015,07,05,04,35,12.50
2015,07,05,04,36,12.50
2015,07,05,04,37,12.40
2015,07,05,04,38,12.40
2015,07,05,04,39,12.40
2015,07,05,04,40,12.40
2015,07,05,04,41,12.40
2015,07,05,04,42,12.40
2015,07,05,04,43,12.40
2015,07,05,04,44,12.40
2015,07,05,04,45,12.40
2015,07,05,04,46,12.30
2015,07,05,04,47,12.30
2015,07,05,04,48,12.30
2015,07,05,04,49,12.30
2015,07,05,04,50,12.30
2015,07,05,04,51,12.30
2015,07,05,04,52,12.30
2015,07,05,04,53,12.30
2015,07,05,04,54,12.30
2015,07,05,04,55,12.30
2015,07,05,04,56,12.30
2015,07,05,04,57,12.20
2015,07,05,04,58,12.20
2015,07,05,04,59,12.20
2015,07,05,05,00,12.20
2015,07,05,05,01,12.20
2015,07,05,05,02,12.20
2015,07,05,05,03,12.20
2015,07,05,05,04,12.20
2015,07,05,05,05,12.20
2015,07,05,05,06,12.20
2015,07,05,05,07,12.20
2015,07,05,05,08,12.20
2015,07,05,05,09,12.20
2015,07,05,05,10,12.20
2015,07,05,05,11,12.20
2015,07,05,05,12,12.20
2015,07,05,05,13,12.20
2015,07,05,05,14,12.20
2015,07,05,05,15,12.20
2015,07,05,05,16,12.20
2015,07,05,05,17,12.20
2015,07,05,05,18,12.20
2015,07,05,05,19,12.20
2015,07,05,05,20,12.20
2015,07,05,05,21,12.20
2015,07,05,05,22,12.20
2015,07,05,05,23,12.20
2015,07,05,05,24,12.20
2015,07,05,05,25,12.20
2015,07,05,05,26,12.20
2015,07,05,05,27,12.20
2015,07,05,05,28,12.20
2015,07,05,05,29,12.20
2015,07,05,05,30,12.20
2015,07,05,05,31,12.20
2015,07,05,05,32,12.20
2015,07,05,05,33,12.20
2015,07,05,05,34,12.20
2015,07,05,05,35,12.20
2015,07,05,05,36,12.20
2015,07,05,05,37,12.20
2015,07,05,05,38,12.20
2015,07,05,05,39,12.20
2015,07,05,05,40,12.10
2015,07,05,05,41,12.10
2015,07,05,05,42,12.10
2015,07,05,05,43,12.10
2015,07,05,05,44,12.10
2015,07,05,05,45,12.10
2015,07,05,05,46,12.10
2015,07,05,05,47,12.10
2015,07,05,05,48,12.10
2015,07,05,05,49,12.10
2015,07,05,05,50,12.10
2015,07,05,05,51,12.10
2015,07,05,05,52,12.10
2015,07,05,05,53,12.10
2015,07,05,05,54,12.10
2015,07,05,05,55,12.10
2015,07,05,05,56,12.10
2015,07,05,05,57,12.10
2015,07,05,05,58,12.10
2015,07,05,05,59,12.10
2015,07,05,06,00,12.10
2015,07,05,06,01,12.10
2015,07,05,06,02,12.10
2015,07,05,06,03,12.10
2015,07,05,06,04,12.10
2015,07,05,06,05,12.10
2015,07,05,06,06,12.10
2015,07,05,06,07,12.10
2015,07,05,06,08,12.10
2015,07,05,06,09,12.10
2015,07,05,06,10,12.10
2015,07,05,06,11,12.10
2015,07,05,06,12,12.10
2015,07,05,06,13,12.10
2015,07,05,06,14,12.20
2015,07,05,06,15,12.20
2015,07,05,06,16,12.20
2015,07,05,06,17,12.20
2015,07,05,06,18,12.20
2015,07,05,06,19,12.20
2015,07,05,06,20,12.20
2015,07,05,06,21,12.20
2015,07,05,06,22,12.20
2015,07,05,06,23,12.30
2015,07,05,06,24,12.30
2015,07,05,06,25,12.30
2015,07,05,06,26,12.30
2015,07,05,06,27,12.30
2015,07,05,06,28,12.30
2015,07,05,06,29,12.30
2015,07,05,06,30,12.40
2015,07,05,06,31,12.40
2015,07,05,06,32,12.40
2015,07,05,06,33,12.40
2015,07,05,06,34,12.50
2015,07,05,06,35,12.50
2015,07,05,06,36,12.60
2015,07,05,06,37,12.60
2015,07,05,06,38,12.60
2015,07,05,06,39,12.60
2015,07,05,06,40,12.70
2015,07,05,06,41,12.70
2015,07,05,06,42,12.70
2015,07,05,06,43,12.70
2015,07,05,06,44,12.80
2015,07,05,06,45,12.80
2015,07,05,06,46,12.80
2015,07,05,06,47,12.80
2015,07,05,06,48,12.90
2015,07,05,06,49,12.90
2015,07,05,06,50,13.00
2015,07,05,06,51,13.00
2015,07,05,06,52,13.10
2015,07,05,06,53,13.10
2015,07,05,06,54,13.10
2015,07,05,06,55,13.10
2015,07,05,06,56,13.20
2015,07,05,06,57,13.20
2015,07,05,06,58,13.20
2015,07,05,06,59,13.30
2015,07,05,07,00,13.30
2015,07,05,07,01,13.40
2015,07,05,07,02,13.50
2015,07,05,07,03,13.50
2015,07,05,07,04,13.60
2015,07,05,07,05,13.60
2015,07,05,07,06,13.70
2015,07,05,07,07,13.70
2015,07,05,07,08,13.80
2015,07,05,07,09,13.80
2015,07,05,07,10,13.90
2015,07,05,07,11,14.00
2015,07,05,07,12,14.00
2015,07,05,07,13,14.10
2015,07,05,07,14,14.20
2015,07,05,07,15,14.20
2015,07,05,07,16,14.30
2015,07,05,07,17,14.30
2015,07,05,07,18,14.40
2015,07,05,07,19,14.50
2015,07,05,07,20,14.60
2015,07,05,07,21,14.70
2015,07,05,07,22,14.70
2015,07,05,07,23,14.70
2015,07,05,07,24,14.80
2015,07,05,07,25,14.90
2015,07,05,07,26,14.90
2015,07,05,07,27,15.00
2015,07,05,07,28,15.00
2015,07,05,07,29,15.10
2015,07,05,07,30,15.10
2015,07,05,07,31,15.20
2015,07,05,07,32,15.20
2015,07,05,07,33,15.30
2015,07,05,07,34,15.30
2015,07,05,07,35,15.30
2015,07,05,07,36,15.30
2015,07,05,07,37,15.30
2015,07,05,07,38,15.40
2015,07,05,07,39,15.40
2015,07,05,07,40,15.50
2015,07,05,07,41,15.50
2015,07,05,07,42,15.60
2015,07,05,07,43,15.70
2015,07,05,07,44,15.70
2015,07,05,07,45,15.80
2015,07,05,07,46,15.80
2015,07,05,07,47,15.80
2015,07,05,07,48,15.90
2015,07,05,07,49,15.90
2015,07,05,07,50,16.00
2015,07,05,07,51,16.00
2015,07,05,07,52,16.10
2015,07,05,07,53,16.10
2015,07,05,07,54,16.20
2015,07,05,07,55,16.20
2015,07,05,07,56,16.30
2015,07,05,07,57,16.40
2015,07,05,07,58,16.50
2015,07,05,07,59,16.60
2015,07,05,08,00,16.70
2015,07,05,08,01,16.80
2015,07,05,08,02,16.90
2015,07,05,08,03,17.00
2015,07,05,08,04,17.10
2015,07,05,08,05,17.20
2015,07,05,08,06,17.20
2015,07,05,08,07,17.30
2015,07,05,08,08,17.40
2015,07,05,08,09,17.50
2015,07,05,08,10,17.60
2015,07,05,08,11,17.70
2015,07,05,08,12,17.80
2015,07,05,08,13,17.90
2015,07,05,08,14,18.00
2015,07,05,08,15,18.10
2015,07,05,08,16,18.20
2015,07,05,08,17,18.30
2015,07,05,08,18,18.40
2015,07,05,08,19,18.50
2015,07,05,08,20,18.60
2015,07,05,08,21,18.70
2015,07,05,08,22,18.80
2015,07,05,08,23,18.90
2015,07,05,08,24,19.00
2015,07,05,08,25,19.10
2015,07,05,08,26,19.20
2015,07,05,08,27,19.30
2015,07,05,08,28,19.30
2015,07,05,08,29,19.40
2015,07,05,08,30,19.50
2015,07,05,08,31,19.50
2015,07,05,08,32,19.60
2015,07,05,08,33,19.60
2015,07,05,08,34,19.70
2015,07,05,08,35,19.80
2015,07,05,08,36,19.80
2015,07,05,08,37,19.90
2015,07,05,08,38,20.00
2015,07,05,08,39,20.10
2015,07,05,08,40,20.20
2015,07,05,08,41,20.20
2015,07,05,08,42,20.30
2015,07,05,08,43,20.40
2015,07,05,08,44,20.60
2015,07,05,08,45,20.70
2015,07,05,08,46,20.80
2015,07,05,08,47,20.90
2015,07,05,08,48,21.10
2015,07,05,08,49,21.20
2015,07,05,08,50,21.30
2015,07,05,08,51,21.40
2015,07,05,08,52,21.50
2015,07,05,08,53,21.60
2015,07,05,08,54,21.70
2015,07,05,08,55,21.80
2015,07,05,08,56,21.90
2015,07,05,08,57,22.00
2015,07,05,08,58,22.00
2015,07,05,08,59,22.10
2015,07,05,09,00,22.10
2015,07,05,09,01,22.10
2015,07,05,09,02,22.10
2015,07,05,09,03,22.10
2015,07,05,09,04,22.10
2015,07,05,09,05,22.20
2015,07,05,09,06,22.20
2015,07,05,09,07,22.30
2015,07,05,09,08,22.30
2015,07,05,09,09,22.40
2015,07,05,09,10,22.50
2015,07,05,09,11,22.60
2015,07,05,09,12,22.60
2015,07,05,09,13,22.60
2015,07,05,09,14,22.70
2015,07,05,09,15,22.70
2015,07,05,09,16,22.80
2015,07,05,09,17,22.80
2015,07,05,09,18,22.90
2015,07,05,09,19,22.90
2015,07,05,09,20,22.90
2015,07,05,09,21,22.90
2015,07,05,09,22,22.90
2015,07,05,09,23,22.90
2015,07,05,09,24,22.90
2015,07,05,09,25,22.90
2015,07,05,09,26,23.00
2015,07,05,09,27,23.00
2015,07,05,09,28,23.10
2015,07,05,09,29,23.10
2015,07,05,09,30,23.20
2015,07,05,09,31,23.20
2015,07,05,09,32,23.30
2015,07,05,09,33,23.30
2015,07,05,09,34,23.40
2015,07,05,09,35,23.40
2015,07,05,09,36,23.50
2015,07,05,09,37,23.60
2015,07,05,09,38,23.60
2015,07,05,09,39,23.70
2015,07,05,09,40,23.70
2015,07,05,09,41,23.70
2015,07,05,09,42,23.80
2015,07,05,09,43,23.80
2015,07,05,09,44,23.80
2015,07,05,09,45,23.80
2015,07,05,09,46,23.90
2015,07,05,09,47,23.90
2015,07,05,09,48,23.90
2015,07,05,09,49,23.90
2015,07,05,09,50,23.90
2015,07,05,09,51,23.90
2015,07,05,09,52,23.90
2015,07,05,09,53,23.90
2015,07,05,09,54,23.90
2015,07,05,09,55,23.90
2015,07,05,09,56,23.80
2015,07,05,09,57,23.80
2015,07,05,09,58,23.80
2015,07,05,09,59,23.80
2015,07,05,10,00,23.80
2015,07,05,10,01,23.80
2015,07,05,10,02,23.80
2015,07,05,10,03,23.80
2015,07,05,10,04,23.80
2015,07,05,10,05,23.80
2015,07,05,10,06,23.80
2015,07,05,10,07,23.80
2015,07,05,10,08,23.80
2015,07,05,10,09,23.80
2015,07,05,10,10,23.80
2015,07,05,10,11,23.80
2015,07,05,10,12,23.80
2015,07,05,10,13,23.80
2015,07,05,10,14,23.80
2015,07,05,10,15,23.80
2015,07,05,10,16,23.70
2015,07,05,10,17,23.80
2015,07,05,10,18,23.80
2015,07,05,10,19,23.80
2015,07,05,10,20,23.80
2015,07,05,10,21,23.80
2015,07,05,10,22,23.90
2015,07,05,10,23,23.90
2015,07,05,10,24,23.90
2015,07,05,10,25,23.90
2015,07,05,10,26,24.00
2015,07,05,10,27,24.00
2015,07,05,10,28,24.10
2015,07,05,10,29,24.10
2015,07,05,10,30,24.10
2015,07,05,10,31,24.10
2015,07,05,10,32,24.10
2015,07,05,10,33,24.10
2015,07,05,10,34,24.10
2015,07,05,10,35,24.10
2015,07,05,10,36,24.20
2015,07,05,10,37,24.20
2015,07,05,10,38,24.30
2015,07,05,10,39,24.30
2015,07,05,10,40,24.30
2015,07,05,10,41,24.30
2015,07,05,10,42,24.30
2015,07,05,10,43,24.30
2015,07,05,10,44,24.30
2015,07,05,10,45,24.40
2015,07,05,10,46,24.40
2015,07,05,10,47,24.40
2015,07,05,10,48,24.40
2015,07,05,10,49,24.40
2015,07,05,10,50,24.40
2015,07,05,10,51,24.50
2015,07,05,10,52,24.50
2015,07,05,10,53,24.60
2015,07,05,10,54,24.60
2015,07,05,10,55,24.60
2015,07,05,10,56,24.70
2015,07,05,10,57,24.70
2015,07,05,10,58,24.80
2015,07,05,10,59,24.80
2015,07,05,11,00,24.90
2015,07,05,11,01,24.90
2015,07,05,11,02,25.00
2015,07,05,11,03,25.10
2015,07,05,11,04,25.10
2015,07,05,11,05,25.20
2015,07,05,11,06,25.20
2015,07,05,11,07,25.20
2015,07,05,11,08,25.20
2015,07,05,11,09,25.20
2015,07,05,11,10,25.20
2015,07,05,11,11,25.10
2015,07,05,11,12,25.10
2015,07,05,11,13,25.10
2015,07,05,11,14,25.10
2015,07,05,11,15,25.20
2015,07,05,11,16,25.20
2015,07,05,11,17,25.20
2015,07,05,11,18,25.20
2015,07,05,11,19,25.20
2015,07,05,11,20,25.20
2015,07,05,11,21,25.20
2015,07,05,11,22,25.20
2015,07,05,11,23,25.20
2015,07,05,11,24,25.20
2015,07,05,11,25,25.10
2015,07,05,11,26,25.10
2015,07,05,11,27,25.10
2015,07,05,11,28,25.10
2015,07,05,11,29,25.00
2015,07,05,11,30,25.00
2015,07,05,11,31,25.00
2015,07,05,11,32,25.00
2015,07,05,11,33,25.00
2015,07,05,11,34,25.00
2015,07,05,11,35,25.00
2015,07,05,11,36,25.00
2015,07,05,11,37,25.00
2015,07,05,11,38,24.90
2015,07,05,11,39,24.90
2015,07,05,11,40,24.90
2015,07,05,11,41,24.90
2015,07,05,11,42,24.90
2015,07,05,11,43,24.80
2015,07,05,11,44,24.80
2015,07,05,11,45,24.80
2015,07,05,11,46,24.80
2015,07,05,11,47,24.80
2015,07,05,11,48,24.80
2015,07,05,11,49,24.80
2015,07,05,11,50,24.80
2015,07,05,11,51,24.80
2015,07,05,11,52,24.80
2015,07,05,11,53,24.80
2015,07,05,11,54,24.80
2015,07,05,11,55,24.80
2015,07,05,11,56,24.70
2015,07,05,11,57,24.70
2015,07,05,11,58,24.70
2015,07,05,11,59,24.70
2015,07,05,12,00,24.70
2015,07,05,12,01,24.70
2015,07,05,12,02,24.80
2015,07,05,12,03,24.80
2015,07,05,12,04,24.80
2015,07,05,12,05,24.80
2015,07,05,12,06,24.80
2015,07,05,12,07,24.80
2015,07,05,12,08,24.80
2015,07,05,12,09,24.80
2015,07,05,12,10,24.80
2015,07,05,12,11,24.80
2015,07,05,12,12,24.80
2015,07,05,12,13,24.80
2015,07,05,12,14,24.80
2015,07,05,12,15,24.70
2015,07,05,12,16,24.70
2015,07,05,12,17,24.70
2015,07,05,12,18,24.70
2015,07,05,12,19,24.70
2015,07,05,12,20,24.60
2015,07,05,12,21,24.60
2015,07,05,12,22,24.60
2015,07,05,12,23,24.50
2015,07,05,12,24,24.50
2015,07,05,12,25,24.40
2015,07,05,12,26,24.40
2015,07,05,12,27,24.40
2015,07,05,12,28,24.40
2015,07,05,12,29,24.40
2015,07,05,12,30,24.30
2015,07,05,12,31,24.30
2015,07,05,12,32,24.20
2015,07,05,12,33,24.20
2015,07,05,12,34,24.20
2015,07,05,12,35,24.20
2015,07,05,12,36,24.10
2015,07,05,12,37,24.10
2015,07,05,12,38,24.00
2015,07,05,12,39,23.90
2015,07,05,12,40,23.90
2015,07,05,12,41,23.90
2015,07,05,12,42,23.80
2015,07,05,12,43,23.80
2015,07,05,12,44,23.80
2015,07,05,12,45,23.80
2015,07,05,12,46,23.80
2015,07,05,12,47,23.70
2015,07,05,12,48,23.70
2015,07,05,12,49,23.70
2015,07,05,12,50,23.70
2015,07,05,12,51,23.70
2015,07,05,12,52,23.70
2015,07,05,12,53,23.70
2015,07,05,12,54,23.70
2015,07,05,12,55,23.70
2015,07,05,12,56,23.70
2015,07,05,12,57,23.70
2015,07,05,12,58,23.70
2015,07,05,12,59,23.70
2015,07,05,13,00,23.70
2015,07,05,13,01,23.80
2015,07,05,13,02,23.80
2015,07,05,13,03,23.80
2015,07,05,13,04,23.80
2015,07,05,13,05,23.80
2015,07,05,13,06,23.90
2015,07,05,13,07,23.90
2015,07,05,13,08,23.90
2015,07,05,13,09,24.00
2015,07,05,13,10,24.00
2015,07,05,13,11,24.10
2015,07,05,13,12,24.10
2015,07,05,13,13,24.10
2015,07,05,13,14,24.20
2015,07,05,13,15,24.20
2015,07,05,13,16,24.20
2015,07,05,13,17,24.30
2015,07,05,13,18,24.30
2015,07,05,13,19,24.30
2015,07,05,13,20,24.30
2015,07,05,13,21,24.40
2015,07,05,13,22,24.40
2015,07,05,13,23,24.40
2015,07,05,13,24,24.40
2015,07,05,13,25,24.40
2015,07,05,13,26,24.40
2015,07,05,13,27,24.40
2015,07,05,13,28,24.40
2015,07,05,13,29,24.40
2015,07,05,13,30,24.40
2015,07,05,13,31,24.40
2015,07,05,13,32,24.40
2015,07,05,13,33,24.50
2015,07,05,13,34,24.50
2015,07,05,13,35,24.50
2015,07,05,13,36,24.50
2015,07,05,13,37,24.60
2015,07,05,13,38,24.60
2015,07,05,13,39,24.60
2015,07,05,13,40,24.60
2015,07,05,13,41,24.60
2015,07,05,13,42,24.70
2015,07,05,13,43,24.70
2015,07,05,13,44,24.70
2015,07,05,13,45,24.70
2015,07,05,13,46,24.80
2015,07,05,13,47,24.80
2015,07,05,13,48,24.80
2015,07,05,13,49,24.80
2015,07,05,13,50,24.90
2015,07,05,13,51,24.90
2015,07,05,13,52,24.90
2015,07,05,13,53,25.00
2015,07,05,13,54,25.00
2015,07,05,13,55,25.00
2015,07,05,13,56,25.10
2015,07,05,13,57,25.10
2015,07,05,13,58,25.10
2015,07,05,13,59,25.10
2015,07,05,14,00,25.10
2015,07,05,14,01,25.10
2015,07,05,14,02,25.00
2015,07,05,14,03,25.00
2015,07,05,14,04,25.00
2015,07,05,14,05,25.00
2015,07,05,14,06,25.00
2015,07,05,14,07,25.00
2015,07,05,14,08,25.10
2015,07,05,14,09,25.10
2015,07,05,14,10,25.10
2015,07,05,14,11,25.20
2015,07,05,14,12,25.20
2015,07,05,14,13,25.20
2015,07,05,14,14,25.30
2015,07,05,14,15,25.30
2015,07,05,14,16,25.30
2015,07,05,14,17,25.30
2015,07,05,14,18,25.30
2015,07,05,14,19,25.40
2015,07,05,14,20,25.50
2015,07,05,14,21,25.50
2015,07,05,14,22,25.60
2015,07,05,14,23,25.60
2015,07,05,14,24,25.70
2015,07,05,14,25,25.80
2015,07,05,14,26,25.80
2015,07,05,14,27,25.80
2015,07,05,14,28,25.80
2015,07,05,14,29,25.70
2015,07,05,14,30,25.70
2015,07,05,14,31,25.60
2015,07,05,14,32,25.60
2015,07,05,14,33,25.50
2015,07,05,14,34,25.50
2015,07,05,14,35,25.40
2015,07,05,14,36,25.40
2015,07,05,14,37,25.40
2015,07,05,14,38,25.40
2015,07,05,14,39,25.40
2015,07,05,14,40,25.40
2015,07,05,14,41,25.40
2015,07,05,14,42,25.40
2015,07,05,14,43,25.40
2015,07,05,14,44,25.40
2015,07,05,14,45,25.50
2015,07,05,14,46,25.50
2015,07,05,14,47,25.50
2015,07,05,14,48,25.60
2015,07,05,14,49,25.60
2015,07,05,14,50,25.60
2015,07,05,14,51,25.60
2015,07,05,14,52,25.70
2015,07,05,14,53,25.70
2015,07,05,14,54,25.70
2015,07,05,14,55,25.70
2015,07,05,14,56,25.80
2015,07,05,14,57,25.80
2015,07,05,14,58,25.80
2015,07,05,14,59,25.80
2015,07,05,15,00,25.80
2015,07,05,15,01,25.90
2015,07,05,15,02,25.90
2015,07,05,15,03,25.90
2015,07,05,15,04,25.90
2015,07,05,15,05,25.90
2015,07,05,15,06,25.90
2015,07,05,15,07,25.90
2015,07,05,15,08,26.00
2015,07,05,15,09,26.00
2015,07,05,15,10,26.00
2015,07,05,15,11,26.00
2015,07,05,15,12,25.90
2015,07,05,15,13,25.90
2015,07,05,15,14,25.90
2015,07,05,15,15,25.90
2015,07,05,15,16,25.90
2015,07,05,15,17,25.90
2015,07,05,15,18,25.90
2015,07,05,15,19,25.90
2015,07,05,15,20,25.90
2015,07,05,15,21,25.90
2015,07,05,15,22,25.90
2015,07,05,15,23,25.90
2015,07,05,15,24,25.90
2015,07,05,15,25,26.00
2015,07,05,15,26,26.00
2015,07,05,15,27,26.00
2015,07,05,15,28,25.90
2015,07,05,15,29,25.90
2015,07,05,15,30,25.90
2015,07,05,15,31,25.90
2015,07,05,15,32,25.90
2015,07,05,15,33,25.90
2015,07,05,15,34,25.90
2015,07,05,15,35,26.00
2015,07,05,15,36,26.00
2015,07,05,15,37,26.00
2015,07,05,15,38,26.10
2015,07,05,15,39,26.10
2015,07,05,15,40,26.10
2015,07,05,15,41,26.10
2015,07,05,15,42,26.10
2015,07,05,15,43,26.00
2015,07,05,15,44,26.00
2015,07,05,15,45,25.90
2015,07,05,15,46,25.90
2015,07,05,15,47,25.90
2015,07,05,15,48,25.80
2015,07,05,15,49,25.80
2015,07,05,15,50,25.80
2015,07,05,15,51,25.80
2015,07,05,15,52,25.80
2015,07,05,15,53,25.80
2015,07,05,15,54,25.80
2015,07,05,15,55,25.80
2015,07,05,15,56,25.80
2015,07,05,15,57,25.80
2015,07,05,15,58,25.80
2015,07,05,15,59,25.80
2015,07,05,16,00,25.80
2015,07,05,16,01,25.80
2015,07,05,16,02,25.80
2015,07,05,16,03,25.80
2015,07,05,16,04,25.80
2015,07,05,16,05,25.70
2015,07,05,16,06,25.70
2015,07,05,16,07,25.70
2015,07,05,16,08,25.70
2015,07,05,16,09,25.70
2015,07,05,16,10,25.60
2015,07,05,16,11,25.60
2015,07,05,16,12,25.60
2015,07,05,16,13,25.60
2015,07,05,16,14,25.60
2015,07,05,16,15,25.60
2015,07,05,16,16,25.50
2015,07,05,16,17,25.50
2015,07,05,16,18,25.50
2015,07,05,16,19,25.50
2015,07,05,16,20,25.40
2015,07,05,16,21,25.40
2015,07,05,16,22,25.30
2015,07,05,16,23,25.30
2015,07,05,16,24,25.30
2015,07,05,16,25,25.30
2015,07,05,16,26,25.20
2015,07,05,16,27,25.20
2015,07,05,16,28,25.20
2015,07,05,16,29,25.20
2015,07,05,16,30,25.20
2015,07,05,16,31,25.20
2015,07,05,16,32,25.20
2015,07,05,16,33,25.20
2015,07,05,16,34,25.20
2015,07,05,16,35,25.20
2015,07,05,16,36,25.20
2015,07,05,16,37,25.20
2015,07,05,16,38,25.20
2015,07,05,16,39,25.30
2015,07,05,16,40,25.30
2015,07,05,16,41,25.30
2015,07,05,16,42,25.40
2015,07,05,16,43,25.40
2015,07,05,16,44,25.40
2015,07,05,16,45,25.40
2015,07,05,16,46,25.50
2015,07,05,16,47,25.50
2015,07,05,16,48,25.50
2015,07,05,16,49,25.60
2015,07,05,16,50,25.60
2015,07,05,16,51,25.60
2015,07,05,16,52,25.70
2015,07,05,16,53,25.70
2015,07,05,16,54,25.60
2015,07,05,16,55,25.60
2015,07,05,16,56,25.60
2015,07,05,16,57,25.60
2015,07,05,16,58,25.60
2015,07,05,16,59,25.60
2015,07,05,17,00,25.60
2015,07,05,17,01,25.50
2015,07,05,17,02,25.50
2015,07,05,17,03,25.50
2015,07,05,17,04,25.50
2015,07,05,17,05,25.50
2015,07,05,17,06,25.50
2015,07,05,17,07,25.50
2015,07,05,17,08,25.50
2015,07,05,17,09,25.60
2015,07,05,17,10,25.60
2015,07,05,17,11,25.60
2015,07,05,17,12,25.60
2015,07,05,17,13,25.60
2015,07,05,17,14,25.60
2015,07,05,17,15,25.60
2015,07,05,17,16,25.60
2015,07,05,17,17,25.60
2015,07,05,17,18,25.60
2015,07,05,17,19,25.60